Worthington, MN

3:46 PM CDT on April 24, 2018 (GMT -0500)
Worthington Municipal

Weather History for KOTG - April, 2014

Change the Weather History Date:

Wednesday, April 16, 2014

  Actual Average Record
Temperature  
Mean Temperature 38 °F -  
Max Temperature 48 °F 53 °F 84 °F (2002)
Min Temperature 28 °F 34 °F 17 °F (2018)
Degree Days  
Heating Degree Days 27    
Moisture  
Dew Point 25 °F    
Average Humidity 64    
Maximum Humidity 81    
Minimum Humidity 43    
Precipitation  
Precipitation 0.00 in - - ()
Sea Level Pressure  
Sea Level Pressure 29.79 in    
Wind  
Wind Speed 20 mph (ESE)    
Max Wind Speed 30 mph    
Max Gust Speed 34 mph    
Visibility 9 miles    
Events      
Averages and records for this station are not official NWS values.
T = Trace of Precipitation, MM = Missing Value Source: NWS Daily Summary

Daily Weather History Graph

Daily Weather History Graph

Search for Another Location

Airport or City:

Astronomy

Apr. 16, 2014 Rise Set
Actual Time 6:37 AM CDT 8:07 PM CDT
Civil Twilight 6:07 AM CDT 8:37 PM CDT
Nautical Twilight 5:31 AM CDT 9:13 PM CDT
Astronomical Twilight 4:53 AM CDT 9:52 PM CDT
Moon 9:54 PM CDT (4/16) 7:23 AM CDT (4/16)
Length of Visible Light 14h 29m
Length of Day
13h 29m
Full, 98% of the Moon is Illuminated
Apr 16
Full
Apr 22
Last Quarter
Apr 29
New
May 6
First Quarter
May 14
Full

Hourly Weather History & Observations

Time (CDT) Temp. Windchill Dew Point Humidity Pressure Visibility Wind Dir Wind Speed Gust Speed Precip Events Conditions
12:15 AM 33.8 °F 21.9 °F 19.4 °F 56% 29.85 in 10.0 mi ESE 21.9 mph - N/A   Scattered Clouds
12:35 AM 33.8 °F 21.6 °F 19.4 °F 56% 29.84 in 10.0 mi ESE 23.0 mph 29.9 mph N/A   Mostly Cloudy
12:55 AM 33.8 °F 21.6 °F 19.4 °F 56% 29.83 in 10.0 mi ESE 23.0 mph 28.8 mph N/A   Partly Cloudy
1:15 AM 33.8 °F 21.9 °F 19.4 °F 56% 29.81 in 10.0 mi ESE 21.9 mph - N/A   Partly Cloudy
1:35 AM 33.8 °F 22.2 °F 19.4 °F 56% 29.81 in 10.0 mi ESE 20.7 mph 25.3 mph N/A   Partly Cloudy
1:55 AM 33.8 °F 21.6 °F 19.4 °F 56% 29.79 in 10.0 mi SE 23.0 mph 28.8 mph N/A   Mostly Cloudy
2:15 AM 33.8 °F 22.2 °F 19.4 °F 56% 29.79 in 10.0 mi ESE 20.7 mph 25.3 mph N/A   Mostly Cloudy
2:35 AM 33.8 °F 22.5 °F 19.4 °F 56% 29.77 in 10.0 mi SE 19.6 mph 24.2 mph N/A   Partly Cloudy
2:55 AM 33.8 °F 22.8 °F 21.2 °F 60% 29.77 in 10.0 mi SE 18.4 mph - N/A   Mostly Cloudy
3:15 AM 35.6 °F 24.5 °F 21.2 °F 56% 29.76 in 10.0 mi SE 20.7 mph 25.3 mph N/A   Mostly Cloudy
3:35 AM 35.6 °F 25.2 °F 21.2 °F 56% 29.75 in 10.0 mi SE 18.4 mph 24.2 mph N/A   Mostly Cloudy
3:55 AM 35.6 °F 25.5 °F 21.2 °F 56% 29.75 in 10.0 mi SSE 17.3 mph 25.3 mph N/A   Mostly Cloudy
4:15 AM 35.6 °F 24.8 °F 23.0 °F 60% 29.74 in 10.0 mi SE 19.6 mph 27.6 mph N/A   Mostly Cloudy
4:35 AM 35.6 °F 25.9 °F 23.0 °F 60% 29.74 in 10.0 mi SSE 16.1 mph - N/A   Scattered Clouds
4:55 AM 37.4 °F 28.5 °F 24.8 °F 60% 29.73 in 10.0 mi SE 15.0 mph - N/A   Scattered Clouds
5:15 AM 37.4 °F 27.2 °F 24.8 °F 60% 29.72 in 10.0 mi SE 19.6 mph 27.6 mph N/A   Scattered Clouds
5:35 AM 37.4 °F 27.8 °F 24.8 °F 60% 29.71 in 10.0 mi SSE 17.3 mph 21.9 mph N/A   Partly Cloudy
5:55 AM 37.4 °F 27.2 °F 24.8 °F 60% 29.71 in 10.0 mi SSE 19.6 mph 27.6 mph N/A   Scattered Clouds
6:15 AM 37.4 °F 28.5 °F 24.8 °F 60% 29.71 in 10.0 mi SE 15.0 mph - N/A   Scattered Clouds
6:35 AM 37.4 °F 27.5 °F 24.8 °F 60% 29.70 in 10.0 mi SE 18.4 mph 24.2 mph N/A   Partly Cloudy
6:55 AM 37.4 °F 28.9 °F 26.6 °F 65% 29.70 in 10.0 mi SE 13.8 mph 20.7 mph N/A   Partly Cloudy
7:15 AM 39.2 °F 30.8 °F 26.6 °F 61% 29.71 in 10.0 mi SSE 15.0 mph 20.7 mph N/A   Scattered Clouds
7:35 AM 39.2 °F 30.8 °F 26.6 °F 61% 29.70 in 10.0 mi SE 15.0 mph 20.7 mph N/A   Mostly Cloudy
7:55 AM 39.2 °F 30.8 °F 26.6 °F 61% 29.72 in 10.0 mi SSE 15.0 mph 18.4 mph N/A   Mostly Cloudy
8:15 AM 39.2 °F 30.5 °F 26.6 °F 61% 29.71 in 10.0 mi SSE 16.1 mph 20.7 mph N/A   Overcast
8:35 AM 39.2 °F 30.2 °F 28.4 °F 65% 29.70 in 10.0 mi SE 17.3 mph 23.0 mph N/A   Mostly Cloudy
8:55 AM 39.2 °F 30.5 °F 28.4 °F 65% 29.69 in 10.0 mi SE 16.1 mph - N/A   Scattered Clouds
9:15 AM 42.8 °F 35.4 °F 28.4 °F 57% 29.70 in 10.0 mi SSE 15.0 mph 23.0 mph N/A   Scattered Clouds
9:35 AM 42.8 °F 35.1 °F 28.4 °F 57% 29.71 in 10.0 mi South 16.1 mph 23.0 mph N/A   Scattered Clouds
9:55 AM 46.4 °F 39.5 °F 28.4 °F 50% 29.72 in 10.0 mi South 17.3 mph 25.3 mph N/A   Clear
10:15 AM 46.4 °F 39.0 °F 26.6 °F 46% 29.71 in 10.0 mi South 19.6 mph 27.6 mph N/A   Clear
10:35 AM 46.4 °F 38.3 °F 26.6 °F 46% 29.70 in 10.0 mi South 23.0 mph 28.8 mph N/A   Scattered Clouds
10:55 AM 46.4 °F 38.7 °F 26.6 °F 46% 29.70 in 10.0 mi South 20.7 mph 27.6 mph N/A   Partly Cloudy
11:15 AM 46.4 °F 39.2 °F 26.6 °F 46% 29.70 in 10.0 mi South 18.4 mph 29.9 mph N/A   Clear
11:35 AM 46.4 °F 39.2 °F 26.6 °F 46% 29.71 in 10.0 mi South 18.4 mph 27.6 mph N/A   Partly Cloudy
11:55 AM 48.2 °F - 26.6 °F 43% 29.71 in 10.0 mi South 21.9 mph 27.6 mph N/A   Mostly Cloudy
12:15 PM 48.2 °F - 26.6 °F 43% 29.70 in 10.0 mi South 21.9 mph 28.8 mph N/A   Scattered Clouds
12:35 PM 48.2 °F - 26.6 °F 43% 29.69 in 10.0 mi South 19.6 mph 24.2 mph N/A   Scattered Clouds
12:55 PM 46.4 °F 40.4 °F 28.4 °F 50% 29.69 in 10.0 mi South 13.8 mph - N/A   Mostly Cloudy
1:15 PM 48.2 °F - 28.4 °F 46% 29.70 in 10.0 mi South 15.0 mph 21.9 mph N/A   Mostly Cloudy
1:35 PM 48.2 °F - 26.6 °F 43% 29.71 in 10.0 mi South 15.0 mph 25.3 mph N/A   Overcast
1:55 PM 46.4 °F 40.7 °F 28.4 °F 50% 29.72 in 8.0 mi SW 12.7 mph 24.2 mph N/A   Overcast
2:15 PM 46.4 °F 40.7 °F 33.8 °F 62% 29.73 in 10.0 mi WNW 12.7 mph - N/A   Overcast
2:35 PM 44.6 °F 39.7 °F 32.0 °F 61% 29.74 in 10.0 mi NNW 9.2 mph - N/A   Overcast
2:55 PM 39.2 °F 30.2 °F 30.2 °F 70% 29.74 in 10.0 mi North 17.3 mph 20.7 mph N/A   Overcast
3:15 PM 39.2 °F 29.8 °F 32.0 °F 75% 29.74 in 10.0 mi NNE 18.4 mph 21.9 mph N/A   Overcast
3:35 PM 39.2 °F 30.8 °F 32.0 °F 75% 29.74 in 7.0 mi North 15.0 mph 25.3 mph N/A   Mostly Cloudy
3:55 PM 39.2 °F 31.2 °F 33.8 °F 81% 29.76 in 10.0 mi NNE 13.8 mph 19.6 mph N/A   Overcast
4:15 PM 37.4 °F 28.9 °F 30.2 °F 75% 29.76 in 7.0 mi North 13.8 mph - N/A   Mostly Cloudy
4:35 PM 37.4 °F 27.2 °F 30.2 °F 75% 29.77 in 7.0 mi North 19.6 mph - N/A   Mostly Cloudy
4:55 PM 37.4 °F 27.5 °F 30.2 °F 75% 29.78 in 5.0 mi North 18.4 mph 21.9 mph N/A   Overcast
5:15 PM 35.6 °F 25.5 °F 30.2 °F 81% 29.78 in 7.0 mi North 17.3 mph - N/A   Overcast
5:35 PM 35.6 °F 24.8 °F 28.4 °F 75% 29.80 in 8.0 mi North 19.6 mph 24.2 mph N/A   Overcast
5:55 PM 33.8 °F 22.8 °F 28.4 °F 81% 29.81 in 7.0 mi North 18.4 mph 26.5 mph N/A   Overcast
6:15 PM 32.0 °F 19.5 °F 26.6 °F 80% 29.83 in 1.0 mi North 21.9 mph - N/A   Overcast
6:35 PM 32.0 °F 20.1 °F 26.6 °F 80% 29.85 in 0.8 mi North 19.6 mph 24.2 mph N/A   Mostly Cloudy
6:55 PM 30.2 °F 17.1 °F 24.8 °F 80% 29.86 in 1.0 mi North 21.9 mph - N/A   Clear
7:15 PM 30.2 °F 17.1 °F 24.8 °F 80% 29.88 in 2.0 mi North 21.9 mph 28.8 mph N/A   Clear
7:35 PM 30.2 °F 16.2 °F 24.8 °F 80% 29.89 in 2.5 mi North 25.3 mph 31.1 mph N/A   Clear
7:55 PM 30.2 °F 16.2 °F 23.0 °F 75% 29.91 in 3.0 mi North 25.3 mph 31.1 mph N/A   Clear
8:15 PM 28.4 °F 13.3 °F 23.0 °F 80% 29.91 in 3.0 mi North 27.6 mph 32.2 mph N/A   Clear
8:35 PM 28.4 °F 13.0 °F 23.0 °F 80% 29.93 in 7.0 mi North 28.8 mph 34.5 mph N/A   Mostly Cloudy
8:55 PM 28.4 °F 12.7 °F 23.0 °F 80% 29.96 in 5.0 mi North 29.9 mph 33.4 mph N/A   Overcast
9:15 PM 28.4 °F 13.5 °F 23.0 °F 80% 29.98 in 6.0 mi North 26.5 mph 33.4 mph N/A   Overcast
9:35 PM 28.4 °F 12.7 °F 23.0 °F 80% 29.99 in 5.0 mi North 29.9 mph 33.4 mph N/A   Overcast
9:55 PM - - - N/A% 30.00 in 5.0 mi North 28.8 mph 33.4 mph N/A   Overcast
10:15 PM 28.4 °F 13.0 °F 21.2 °F 74% 30.01 in 10.0 mi North 28.8 mph 34.5 mph N/A   Overcast
10:35 PM 28.4 °F 14.1 °F 21.2 °F 74% 30.03 in 10.0 mi North 24.2 mph 34.5 mph N/A   Overcast
10:55 PM 28.4 °F 14.4 °F 21.2 °F 74% 30.04 in 10.0 mi North 23.0 mph 31.1 mph N/A   Overcast
11:15 PM 28.4 °F 13.5 °F 21.2 °F 74% 30.05 in 10.0 mi North 26.5 mph 32.2 mph N/A   Overcast
11:35 PM 28.4 °F 13.8 °F 21.2 °F 74% 30.06 in 10.0 mi North 25.3 mph 29.9 mph N/A   Overcast
11:55 PM 28.4 °F 14.4 °F 21.2 °F 74% 30.06 in 10.0 mi North 23.0 mph 31.1 mph N/A   Overcast